Location: Unspecified
(35.6961°N, 0.0000°E)
Time: 01:05:45
(UTC+00:00)

Altair - Pass Details

Date: 27 May 2019
Orbit: 1501 x 1683 km, 47.2° (Epoch: 16 June)

Event Time Altitude Azimuth Distance (km) Brightness Sun altitude
Rises 23:08:05 0° 167° (SSE) 4,809 - -31.8°
Reaches altitude 10° 23:14:27 10° 137° (SE) 3,873 - -32.0°
Maximum altitude 23:17:11 11° 120° (ESE) 3,778 - -32.1°
Drops below altitude 10° 23:19:57 10° 104° (ESE) 3,909 - -32.3°
Exits shadow 23:20:37 - 100° (E) 3,973 9.5 -32.3°
Sets 23:26:24 0° 74° (ENE) 4,928 10.2 -32.5°
